Weather Roundup
Issued by NWS Chicago, IL

Home | Current Version | Previous Version | Text Only | Print | Product List | Glossary On
Versions: 1 2 3 4 5 6 7 8 9 10 11 12 13 14 15 16 17 18 19 20 21 22 23 24 25 26 27 28 29 30 31 32 33 34 35 36 37 38 39 40 41 42 43 44 45 46 47 48 49 50
000
NZUS59 KLOT 030721
HRRLOT

CHICAGO AREA WEATHER ROUNDUP
NATIONAL WEATHER SERVICE CHICAGO/ROMEOVILLE IL
200 AM CDT THU SEP 03 2015

NOTE: "FAIR" INDICATES FEW OR NO CLOUDS BELOW 12,000 FEET WITH NO
SIGNIFICANT WEATHER AND/OR OBSTRUCTIONS TO VISIBILITY.

* THESE STATIONS ARE NOT UNDER NWS QUALITY CONTROL. THEY ALSO MAY NOT
  REPORT WEATHER SUCH AS PRECIPITATION OR FOG.

ILZ005-006-012>014-019>023-030800-
NORTHEAST ILLINOIS

CITY           SKY/WX    TMP DP  RH WIND       PRES   REMARKS
OHARE          MOCLDY    74  68  81 CALM      29.95F
MIDWAY         CLOUDY    80  69  69 S5        29.95F HX  83
AURORA         MOCLDY    73  68  84 SW5       29.97F
LANSING*       PTCLDY    73  68  86 SW5       29.97S
JOLIET*        CLEAR     74  70  89 CALM      29.97S
WAUKEGAN       CLEAR     74  68  81 SW7       29.94F
DUPAGE AIRPORT MOCLDY    72  67  84 S6        29.96F
WHEELING       PTCLDY    77  67  71 S6        29.96F
KANKAKEE*      PTCLDY    72  69  90 SW5       29.99F
MORRIS*        CLEAR     70  67  88 S3        29.96S
LEWIS AIRPORT* CLEAR     72  67  86 SW6       29.97F
NORTHERLY IS     N/A     78  67  68 SW5         N/A  HX  80
$$

WIZ051-052-058>065-066-070>072-030800-
SOUTHEAST WISCONSIN

CITY           SKY/WX    TMP DP  RH WIND       PRES   REMARKS
MILWAUKEE      PTCLDY    76  69  79 S10       29.92F
KENOSHA*       MOCLDY    74  69  85 S6        29.94F
RACINE*        MOCLDY    73  67  81 SW5       29.95F
BURLINGTON     PTCLDY    70  68  93 SW5       29.94S
WAUKESHA       PTCLDY    73  66  78 S3        29.95S
WEST BEND      MOCLDY    70  64  83 CALM      29.92F
$$

INZ001>003-010>013-019-020-030800-
NORTHWEST INDIANA

CITY           SKY/WX    TMP DP  RH WIND       PRES   REMARKS
GARY*          PTCLDY    76  68  76 CALM      29.97S
MICHIGAN CITY* NOT AVBL
RENSSELAER*    NOT AVBL
VALPARAISO     PTCLDY    73  68  84 CALM      29.99F
$$

LMZ740>746-030800-
SOUTHERN LAKE MICHIGAN

STATION/POSITION TIME  SKY/WX   TEMP WIND        PRES    VSBY
                                AIR  DIR/SP/G
                 (UTC)          (F)  (DEG/KT/KT) (MB)    (MI)
HARRISON CRIB    0700            78  190/ 11/ 12   N/A
BURNHAM HARBOR   0700            79  220/  3/  7   N/A
CALUMET HARBOR   0600            78  210/  3/  5   N/A
BURNS HARBOR     0600            76  190/  9/ 12 1015.6R
MICHIGAN CITY    0600            78  170/ 11/ 13   N/A
$$

ABBREVIATIONS USED IN REMARKS
   TC - TEMPERATURE IN CELSIUS
  WCI - WIND CHILL INDEX
   HX - HEAT INDEX
  VSB - VISIBILITY
$$



USA.gov is the U.S. government's official web portal to all federal, state and local government web resources and services.